Regional Weather Roundup
Issued by NWS

Home | Current Version | Previous Version | Text Only | Print | Product List | Glossary On
Versions: 1 2 3 4 5 6 7 8 9 10 11 12 13 14 15 16 17 18 19 20 21 22 23 24 25 26 27 28 29 30 31 32 33 34 35 36 37 38 39 40 41 42 43 44 45 46 47 48 49 50
000
ASUS45 KREV 050310
RWRNV
NEVADA REGIONAL WEATHER ROUNDUP
NATIONAL WEATHER SERVICE RENO NV
800 PM PDT WED MAY 04 2016

NOTE: "FAIR" INDICATES FEW OR NO CLOUDS BELOW 12,000 FEET WITH NO
SIGNIFICANT WEATHER AND/OR OBSTRUCTIONS TO VISIBILITY.

NVZ001-003-004-050400-
WESTERN NEVADA

CITY           SKY/WX    TMP DP  RH WIND       PRES   REMARKS
RENO           CLOUDY    64  37  36 W7        29.87F
CARSON CITY    FAIR      63  36  36 N6        29.88F
MINDEN         FAIR      57  39  51 W5        29.89S
SLIDE MTN        N/A     39  27  60 S17         N/A
PYRAMID LAKE     N/A     61 N/A N/A NW1         N/A
FALLON         CLOUDY    68  29  23 S6        29.83R
LOVELOCK       CLOUDY    70  28  21 SW6       29.83R
$$

NVZ002-CAZ072-073-050400-
NORTHERN AND CENTRAL SIERRA

CITY           SKY/WX    TMP DP  RH WIND       PRES   REMARKS
S. LAKE TAHOE  CLOUDY    53  40  61 SW5       29.94S
TRUCKEE        CLOUDY    46  43  87 CALM      29.96S
SQUAW VLY 8000   N/A     41  37  87 S8          N/A
BLUE CANYON    CLOUDY    52  45  77 W3        29.96S
MAMMOTH LAKES  FAIR      46  37  68 SW14      30.01S
BRIDGEPORT     FAIR      50  31  48 VRB3      29.95S
$$

NVZ030-031-036-050400-
NORTHERN NEVADA

CITY           SKY/WX    TMP DP  RH WIND       PRES   REMARKS
ELKO           MOCLDY    65  38  36 CALM      29.90F
WINNEMUCCA     CLOUDY    62  38  40 SE7       29.85S
WENDOVER       CLOUDY    68  39  34 NE6       29.92S
$$

NVZ035-037-050400-
CENTRAL NEVADA

CITY           SKY/WX    TMP DP  RH WIND       PRES   REMARKS
ELY            MOCLDY    58  27  30 SE10      30.03R
EUREKA           N/A     62  29  28 SE12      29.95S
$$

NVZ013-014-050400-
SOUTH CENTRAL NEVADA

CITY           SKY/WX    TMP DP  RH WIND       PRES   REMARKS
TONOPAH        PTCLDY    65  20  17 S10       29.93R
$$

NVZ017-020-022-050400-
SOUTHERN NEVADA

CITY           SKY/WX    TMP DP  RH WIND       PRES   REMARKS
LAS VEGAS      MOCLDY    87  24  10 S6        29.73R
N. LAS VEGAS   MOCLDY    87  24  10 S10       29.76R
NELLIS AFB     NOT AVBL
HENDERSON      MOCLDY    82  32  16 S7        29.80S
MERCURY        CLEAR     77  22  13 S8        29.81S
$$



USA.gov is the U.S. government's official web portal to all federal, state and local government web resources and services.